INTELSAT 33E DEB, 61997

Orbit data source: Space-Track

INTELSAT 33E DEB, 61997 is space debris in GEO originally from a launch on Wed, 24 Aug 2016 UTC launched from the French Guiana (FRGUI). Debris objects in space refer to the collection of defunct objects orbiting the Earth. Examples of debris include non-operational satellites, rocket bodies, and fragments generated from explosions, collisions, or faulty payload assembly.

Not visible in the next 10 days
Identifier
61997, 2016-053P
Orbit
GEO
Country
Flag of USUS / ITSO
Related business
Manufacturer
Boeing/ES
Mission
Spacecraft
Bus & Motor
Unknown
Mass
Unknown
Launch date (UTC)
2016-08-24 (10 years ago)
Launch vehicle
Unknown
Launch site
French Guiana (FRGUI)
Object type
Payload
Rocket body
Debris
Shape & HBR
Unknown shape, 1.1 m
Radar Cross Section
RCS unknown

Expand to show TLE details & history
Last TLE update: 1 day ago

TLE from 1 day ago
0 INTELSAT 33E DEB
1 61997U 16053P   26252.83919590  .00000004  00000-0  00000+0 0  9991
2 61997   1.7802  83.9444 0091379 273.9981  85.7432  1.01609417  7029
Epoch: 2026-09-09T20:08Z
TLE epoch observation values (Epoch: 2026-09-09T20:08:26.525Z)
Latitude
Longitude
153.7415°
Altitude
35,391.249 km
Speed
3.09 km/s
True Right ascension
05h 38m 57s
True Declination
0° 00' 00"
Sunlit
Object was in daylight at epoch
Visualization orbit readout
Latitude
Unknown
Longitude
Unknown
Altitude
Unknown
Speed
Unknown
Apparent Right ascension
Unknown
Apparent Declination
Unknown
Sunlit
N/A
Visualization observer readout
Local Sidereal Time
14:18:54
Azimuth
Unknown
Elevation
Unknown
Doppler factor
Unknown
Orbital elements
Apogee altitude
35,798.724 km
Perigee altitude
35,034.888 km
Semi-major axis
41,794.943 km
Eccentricity
0.00914
Inclination
1.7802°
RAAN
83.9444°
Arg. of periapsis
273.9981°
True anomaly
86.78827°
Mean anomaly
85.7432°
Eccentric anomaly
86.26565°
Mean motion
0.25401 °/min
Orbital period
1,417.25 mins
BSTAR
0
Loading maneuver chart data...
Computing Atmospheric mass density...
Loading historical data...
Loading historical data...
Loading historical data...
Loading historical data...
Loading historical data...
Loading historical data...
Loading historical data...

Documentation

Showing up to 5 results
|